Miscellaneous Local Product
Issued by NWS North Platte, NE

Home | Current Version | Previous Version | Text Only | Print | Product List | Glossary On
Versions: 1 2 3 4 5 6 7 8 9 10 11 12 13 14 15 16 17 18 19 20 21 22 23 24 25 26 27 28 29 30 31 32 33 34 35 36 37 38 39 40 41 42 43 44 45 46 47 48 49 50
000
AXUS43 KLBF 050610
MISLBF


WESTERN AND NORTH CENTRAL NEBRASKA HOURLY WEATHER ROUNDUP
NATIONAL WEATHER SERVICE NORTH PLATTE NE
100 AM CDT SUN JUL 05 2015

***STATIONS NOT REPORTING VARIABLES SUCH AS SKY/WEATHER OR
PRESSURE ARE PROVIDED BY THE NEBRASKA DEPARTMENT OF
ROADS...RAWS...AND APRS NETWORKS...AND ARE NOT UNDER
NATIONAL WEATHER SERVICE QUALITY CONTROL***

...OBSERVATIONS IN AND NEAR THE EASTERN PANHANDLE OF NEBRASKA...

CITY           SKY/WX    TMP DP  RH WIND       PRES   REMARKS
PINE RIDGE     PTCLDY    70  59  68 E16G25    29.88R
CHADRON        PTCLDY    67  62  84 E3        29.83F
ALLIANCE       PTCLDY    70  63  78 S8        29.89R
SIDNEY         CLOUDY    75  62  64 SE10      29.92F
WHITECLAY        N/A     72  60  65 E13         N/A
CRESCENT LAKE    N/A     74  63  69 S9          N/A
BIG SPRINGS      N/A     77  65  66 SE14        N/A
$$

...OBSERVATIONS IN NORTH CENTRAL NEBRASKA...

CITY           SKY/WX    TMP DP  RH WIND       PRES   REMARKS
VALENTINE      CLOUDY    78  63  59 S9G17     29.83S
THEDFORD       CLOUDY    78  65  66 S21       29.87S
AINSWORTH      CLOUDY    76  65  70 S13       29.85S
O`NEILL        MOCLDY    73  65  76 SE10      29.88S
ORD            CLOUDY    73  63  70 SE10      29.87F
BROKEN BOW     CLOUDY    75  64  68 SE12      29.89F
VALENTINE NWR    N/A     77  65  66 SE10G23     N/A
SPRINGVIEW       N/A     75  66  75 CALM        N/A
HALSEY           N/A     77  64  64 S12G23      N/A
BREWSTER         N/A     80  68  65 S17         N/A
ROSE             N/A     85  81  87 S15         N/A  HX 100
NEWPORT          N/A     74  68  80 S8          N/A
SARGENT          N/A     72  65  77 CALM        N/A
CHAMBERS         N/A     71  64  80 S6G13       N/A
EWING            N/A     70  65  84 S6          N/A
$$

...OBSERVATIONS IN SOUTHWEST NEBRASKA AND FAR NORTHEAST COLORADO...

CITY           SKY/WX    TMP DP  RH WIND       PRES   REMARKS
WRAY           FAIR      78  60  53 CALM      29.91R
HOLYOKE        FAIR      79  63  57 S9        29.91R
IMPERIAL       CLOUDY    78  62  57 SE12      29.89F
OGALLALA       MOCLDY    77  63  60 S12       29.88S
NORTH PLATTE   CLEAR     76  63  64 SE9       29.88F
MCCOOK         PTCLDY    77  62  59 SE8       29.88F
LEXINGTON      MOCLDY    76  65  68 S14       29.89F
PAXTON           N/A     75  65  71 SE14        N/A
GOTHENBURG       N/A     76  60  57 S9          N/A
CALLAWAY         N/A     74  67  78 S13         N/A
$$

...NORTH PLATTE AREA...

CITY           SKY/WX    TMP DP  RH WIND       PRES   REMARKS
AIRPORT        CLEAR     76  63  64 SE9       29.88F
DOWNTOWN         N/A     77  65  65 SE3G12      N/A
HILLCREST        N/A     76  64  67 SE13G20     N/A
$$

...SOME WEATHER OBSERVATIONS FROM AROUND THE REGION...

CITY           SKY/WX    TMP DP  RH WIND       PRES   REMARKS
DENVER         MOCLDY    70  49  47 SW5       30.01F
LARAMIE        CLOUDY    69  43  38 N16G25    30.15F
CHEYENNE       MOCLDY    69  51  52 CALM      30.05R
SCOTTSBLUFF    PTCLDY    70  62  76 E7        29.87F
RAPID CITY     PTCLDY    64  60  87 NW6       29.82S FOG
PIERRE         PTCLDY    79  68  69 S10       29.72F
WINNER         FAIR      79  64  60 S22G29    29.75F
SIOUX FALLS    PTCLDY    71  62  73 S14       29.88F
OMAHA          CLEAR     70  62  76 S9        29.96R
GRAND ISLAND   CLOUDY    73  63  70 S14       29.92S
KANSAS CITY    CLEAR     68  63  84 SE8       30.01R
WICHITA        CLEAR     77  65  66 SE8       29.96R
HAYS           PTCLDY    77  63  61 S15       29.92S
LIBERAL        PTCLDY    73  63  68 S9        29.95S
GOODLAND       PTCLDY    75  60  59 S16       29.91F
$$



USA.gov is the U.S. government's official web portal to all federal, state and local government web resources and services.